This demonstration page uses our WeatherBlox Daily Observations layout. Learn more.

Left ArrowRight Arrow

39.01783, -85.05884

Hourly Observations for March 20, 2020

Temp ( °F °C ) Dew Point ( °F °C ) Humidity (%) Winds ( mph kmh ) Pressure ( in mb ) Visibility ( mi km ) Precip ( " mm )
12:07 am 00:07 Cloudy 66 18.9 62 16.7 87 87 SSW 13 20 29.95 1014 10 16 0.00 0.00
12:38 am 00:38 Mostly Cloudy 66 18.9 62 16.7 87 87 SSW 18 30 29.94 1014 10 16 0.00 0.00
12:52 am 00:52 Cloudy 66 18.9 62 16.7 87 87 SSW 14 22 29.94 1014 10 16 0.00 0.00
1:52 am 01:52 Cloudy 66 18.9 62 16.7 87 87 SSW 12 19 29.93 1013 10 16 0.00 0.00
2:52 am 02:52 Cloudy with Light Rain 67 19.4 61 16.1 81 81 SSW 16 26 29.91 1013 8 13 0.00 0.00
3:52 am 03:52 Cloudy 68 20 61 16.1 78 78 SSW 17 28 29.88 1012 10 16 0.00 0.00
4:52 am 04:52 Cloudy 68 20 61 16.1 78 78 SSW 20 31 29.87 1011 10 16 0.00 0.00
5:10 am 05:10 Cloudy with Heavy Rain 67 19.4 62 16.7 84 84 SW 21 33 29.90 1013 2 3 0.04 1.02
5:18 am 05:18 Cloudy with Rain 65 18.3 59 15 81 81 WSW 18 30 29.89 1012 2 3 0.17 4.32
5:26 am 05:26 Cloudy with Rain 64 17.8 59 15 84 84 SW 9 15 29.88 1012 5 8 0.19 4.83
5:52 am 05:52 Cloudy 66 18.9 62 16.7 87 87 SSW 15 24 29.87 1011 10 16 0.25 6.35
6:31 am 06:31 Cloudy 66 18.9 62 16.7 87 87 SSW 13 20 29.86 1011 9 14 0.01 0.25
6:35 am 06:35 Cloudy with Heavy Rain 66 18.9 62 16.7 87 87 SSW 15 24 29.86 1011 4 6 0.01 0.25
6:52 am 06:52 Cloudy 65 18.3 62 16.7 90 90 SSW 13 20 29.85 1011 8 13 0.05 1.27
7:52 am 07:52 Cloudy with Heavy Rain 67 19.4 62 16.7 84 84 SW 18 30 29.86 1011 6 10 0.00 0.00
8:03 am 08:03 Cloudy with Light Rain 66 18.9 62 16.7 87 87 SW 10 17 29.88 1012 8 13 0.00 0.00
8:39 am 08:39 Mostly Cloudy 67 19.4 61 16.1 81 81 SW 13 20 29.90 1013 10 16 0.00 0.00
8:52 am 08:52 Mostly Cloudy 67 19.4 60 15.6 79 79 WSW 13 20 29.91 1013 10 16 0.00 0.00
9:52 am 09:52 Cloudy 68 20 61 16.1 78 78 WSW 14 22 29.94 1014 10 16 0.00 0.00
10:14 am 10:14 Cloudy 69 20.6 60 15.6 73 73 WSW 16 26 29.95 1014 10 16 0.00 0.00
10:52 am 10:52 Cloudy 69 20.6 58 14.4 68 68 WSW 16 26 29.97 1015 10 16 0.00 0.00
11:52 am 11:52 Mostly Cloudy 70 21.1 57 13.9 64 64 WSW 15 24 29.98 1015 10 16 0.00 0.00
12:52 pm 12:52 Cloudy 70 21.1 55 12.8 59 59 W 20 31 29.99 1016 10 16 0.00 0.00
1:52 pm 13:52 Mostly Cloudy 73 22.8 53 11.7 50 50 WSW 17 28 29.98 1015 10 16 0.00 0.00
2:39 pm 14:39 Cloudy 66 18.9 56 13.3 70 70 NW 24 39 30.00 1016 10 16 0.00 0.00
2:52 pm 14:52 Cloudy 65 18.3 55 12.8 70 70 NW 23 37 30.00 1016 10 16 0.00 0.00
3:52 pm 15:52 Cloudy 62 16.7 52 11.1 70 70 NW 16 26 30.04 1017 10 16 0.00 0.00
4:48 pm 16:48 Cloudy 59 15 48 9 68 68 NW 17 28 30.06 1018 10 16 0.00 0.00
4:52 pm 16:52 Cloudy 59 15 48 8.9 67 67 NW 16 26 30.06 1018 10 16 0.00 0.00
5:52 pm 17:52 Cloudy 52 11.1 43 6.1 72 72 NNW 21 33 30.12 1020 10 16 0.00 0.00
6:52 pm 18:52 Cloudy 48 8.9 39 3.9 71 71 NNW 18 30 30.17 1022 10 16 0.00 0.00
7:52 pm 19:52 Cloudy 46 7.8 36 2.2 68 68 NNW 20 31 30.21 1023 10 16 0.00 0.00
8:52 pm 20:52 Cloudy 44 6.7 35 1.7 71 71 N 20 31 30.24 1024 10 16 0.00 0.00
9:52 pm 21:52 Cloudy 43 6.1 34 1.1 71 71 N 18 30 30.28 1025 10 16 0.00 0.00
10:52 pm 22:52 Cloudy 42 5.6 32 0 68 68 N 15 24 30.31 1026 10 16 0.00 0.00
11:52 pm 23:52 Cloudy 40 4.4 31 -0.6 70 70 N 16 26 30.32 1027 10 16 0.00 0.00

Powered by AerisWeather